Home > Weather > Macon > Past weeks

Flag for USA Past Weather in Macon, Georgia, USA — Yesterday and Last 2 Weeks

Now
91 °F

Passing clouds.


Feels Like: 90 °F
Forecast: 67 / 90 °F
Wind: 3 mph from Southwest

Location: Middle Georgia Regional Airport

Current Time: May 31, 2016 at 7:55:18 PM

Latest Report: May 31, 2016 at 6:53 PM


Visibility: 10 mi

Pressure: 29.85 "Hg

Humidity: 34%

Dew Point: 59 °F

Location of MaconLocation

Past Weather in Macon — Graph

°F

Macon Temperature Yesterday

Maximum temperature yesterday: 92 °F (at 3:53 PM)
Minimum temperature yesterday: 64 °F (at 5:53 AM)
Average temperature yesterday: 78 °F

High & Low Weather Summary for the Past Weeks

 TemperatureHumidityPressure
High94 °F (May 31, 2:53 PM)97% (May 17, 11:53 AM)30.24 "Hg (May 17, 11:53 AM)
Low54 °F (May 23, 5:53 AM)25% (May 24, 1:53 PM)29.85 "Hg (May 31, 5:53 PM)
Average73 °F71%30.03 "Hg
* Reported May 16 5:53 PM — May 31 5:53 PM, Macon, Weather by CustomWeather, © 2016

Note: Actual official high and low records may vary slightly from our data, if they occured in-between our weather recording intervals... More about our weather records

Advertising

Macon Weather History for the Previous 24 Hours

Scroll right to see more
 ConditionsComfort  
Time TempWeatherWind HumidityBarometerVisibility
5:53 PM
Tue, May 31
93 °FSunny.No wind33%29.85 "Hg10 mi
4:53 PM90 °FSunny.5 mph41%29.86 "Hg10 mi
3:53 PM94 °FScattered clouds.8 mph33%29.88 "Hg10 mi
2:53 PM94 °FScattered clouds.8 mph37%29.90 "Hg10 mi
1:53 PM91 °FPassing clouds.3 mph41%29.92 "Hg10 mi
12:53 PM90 °FSunny.3 mph42%29.93 "Hg10 mi
11:53 AM89 °FSunny.6 mph48%29.94 "Hg10 mi
10:53 AM85 °FSunny.7 mph55%29.94 "Hg10 mi
9:53 AM82 °FSunny.5 mph56%29.94 "Hg10 mi
8:53 AM77 °FSunny.3 mph69%29.94 "Hg10 mi
7:53 AM71 °FSunny.No wind84%29.93 "Hg10 mi
6:53 AM65 °FClear.3 mph94%29.90 "Hg7 mi
5:53 AM65 °FClear.3 mph94%29.89 "Hg9 mi
4:53 AM65 °FClear.3 mph94%29.88 "Hg9 mi
3:53 AM67 °FClear.No wind93%29.87 "Hg9 mi
2:53 AM68 °FClear.3 mph93%29.87 "Hg9 mi
1:53 AM68 °FClear.No wind90%29.88 "Hg9 mi
12:53 AM70 °FClear.3 mph87%29.90 "Hg10 mi
11:53 PM
Mon, May 30
73 °FPassing clouds.No wind79%29.90 "Hg10 mi
10:53 PM74 °FClear.No wind79%29.91 "Hg10 mi
9:53 PM76 °FClear.No wind80%29.90 "Hg10 mi
8:53 PM81 °FSunny.No wind67%29.88 "Hg10 mi
7:53 PM90 °FSunny.No wind38%29.88 "Hg10 mi
Weather by CustomWeather, © 2016

See weather overviewHow to use our weather pages